Portada
METAR-TAF:

METAR-TAF

Aeroports :

Yao, Japó

latitud: 34-36N, longitud: 135-36E, altitud: 10 m

Observació

L'informe es va fer fa 10 hores i 36 minuts, a les 10:00 UTC
Vent 8 kt del Oest
Temperatura 27°C
Humitat 66%
Pressió 1012 hPa
Visibilitat 10 km o més
Escasses núvols a una alçada de 2500 ft
Núvols disperses a una alçada de 3500 ft
Cel ennuvolat a una alçada de 6000 ft
xàfecs en les proximitats

METAR: RJOY 251000Z 26008KT 9999 VCSH FEW025 SCT035 BKN060 27/20 Q1012

Hora: 05:36 (20:36 UTC)


TAF: manca

Observacions i pronòstics meteorològics de més de 4000 aeroports (METAR i TAF).

Les estacions disponibles són els punts grocs i vermells al mapa.

Posi el ratolí al punt desitjat per veure el nom de l'estació.

Feu clic per veure les observacions i els pronòstics meteorològics.

Per canviar el mapa: feu clic els botons verds amb una creu de color negre per apropar; al botó verd amb un guió per allunyar la imatge; o en les fletxes verdes per a mapes adjacents.


METAR-TAF: